Location: Alsip
(41.6689°N, 87.7387°W)
Time: 15:18:54
(UTC+00:00)

Cosmos 1092 Rocket - Pass Details

Date: 14 July 2020
Orbit: 954 x 995 km, 83.0° (Epoch: 13 August)

Event Time Altitude Azimuth Distance (km) Brightness Sun altitude
Rises 09:51:35 0° 352° (N) 3,721 7.5 -6.7°
Reaches altitude 10° 09:54:07 10° 353° (N) 2,766 6.8 -6.3°
Maximum altitude 10:00:30 87° 83° (E) 996 4.2 -5.4°
Drops below altitude 10° 10:06:46 10° 173° (S) 2,728 6.1 -4.4°
Sets 10:09:16 0° 174° (S) 3,666 6.7 -4.0°
